Location: Newark
(46.3567°N, 6.1428°E)
Time: 10:55:45
(UTC+00:00)

First-Move - Pass Details

Date: 20 September 2019
Orbit: 577 x 669 km, 97.6° (Epoch: 19 October)

Event Time Altitude Azimuth Distance (km) Brightness Sun altitude
Rises 18:18:28 0° 207° (SSW) 2,841 ? -7.8°
Reaches altitude 10° 18:21:18 10° 227° (SW) 1,928 ? -8.3°
Maximum altitude 18:24:03 17° 269° (W) 1,518 ? -8.7°
Drops below altitude 10° 18:26:47 10° 310° (NW) 1,914 ? -9.2°
Sets 18:29:36 0° 331° (NNW) 2,812 ? -9.7°
